Meteo Giornale » Osservazioni meteo Italia » Milano-Linate

ore: 00:50 - Osservazioni Meteo Milano-Linate
Lat. 45° 26' N Lon. 9° 17' E Alt. 107 metri s.l.m.

foschia Europe/Rome

13 °C

Foschia

Temp. 24 Ore

12 °C

15 °C

Nord

3.7 Km/h

Dew point 11 °C

Umidità 87 %

Visibilità  3 Km

Il sole sorge alle ore 07:46

Il sole tramonta alle ore 18:28

Data e Ora Cielo e Fenomeni T °C DP °C Um. % Pres. hPa Vis. km Vento km/h
Oggi h: 00:50 foschia Foschia 13 11 87 1021 3 N 3.7
Oggi h: 00:20 foschia Foschia 13 12 93 1021 3 N 3.7
Ieri h: 23:50 foschia Foschia 13 12 93 1021 3 N 5.5
Ieri h: 23:20 foschia Foschia 13 12 93 1021 3 E 7.4
Ieri h: 22:50 foschia Foschia 14 12 87 1021 3 N 5.5
Ieri h: 22:20 foschia Foschia 14 12 87 1021 2 N 5.5
Ieri h: 21:50 foschia Foschia 14 12 87 1021 2 N 5.5
Ieri h: 21:20 foschia Foschia 13 12 93 1021 2 N 3.7
Ieri h: 20:50 foschia Foschia 14 12 87 1021 2 N 5.5
Ieri h: 20:20 foschia Foschia 13 12 93 1020 2 N 5.5
Ieri h: 19:50 foschia Foschia 13 12 93 1020 2 N 5.5
Ieri h: 19:20 foschia Foschia 13 12 93 1020 2 N 3.7
Ieri h: 18:50 foschia Foschia 13 12 93 1020 2 N 5.5
Ieri h: 18:20 foschia Foschia 14 12 87 1020 2 N 5.5
Ieri h: 17:50 foschia Foschia 14 12 87 1019 3 N 5.5
Ieri h: 17:20 foschia Foschia 14 12 87 1019 3 N 5.5
Ieri h: 16:50 foschia Foschia 15 12 82 1019 2 N 3.7
Ieri h: 16:20 foschia Foschia 15 12 82 1019 2 N 3.7
Ieri h: 15:50 foschia Foschia 15 12 82 1019 2 N 3.7
Ieri h: 15:20 foschia Foschia 15 12 82 1019 2 N 3.7
Ieri h: 14:50 foschia Foschia 14 12 87 1019 2 N 5.5
Ieri h: 14:20 foschia Foschia 14 12 87 1020 2 N 3.7
Ieri h: 13:50 foschia Foschia 14 12 87 1020 2 N 3.7
Ieri h: 13:20 foschia Foschia 14 12 87 1020 2 N 5.5
Ieri h: 12:50 foschia Foschia 13 12 93 1020 2 N 5.5
Ieri h: 12:20 foschia Foschia 13 12 93 1021 2 N 5.5
Ieri h: 11:50 foschia Foschia 13 12 93 1021 2 N 5.5
Ieri h: 11:20 foschia Foschia 13 12 93 1021 2 N 5.5
Ieri h: 10:50 foschia Foschia 12 12 100 1021 1 SO 7.4
Ieri h: 10:20 nebbia Nebbia 12 11 93 1021 0.8 SO 9.3
Ieri h: 09:50 nebbia Nebbia 12 12 100 1021 0.8 SO 7.4
Ieri h: 09:20 nebbia Nebbia 12 12 100 1020 0.8 N 5.5
Ieri h: 08:50 nebbia Nebbia 12 12 100 1020 0.8 SO 7.4
Ieri h: 08:20 nebbia Nebbia 12 12 100 1020 0.8 S/SO 7.4
Ieri h: 07:50 nebbia Nebbia 12 12 100 1020 0.8 N 5.5
Ieri h: 07:20 foschia Foschia 12 12 100 1020 2 N 3.7
Ieri h: 06:50 foschia Foschia 12 12 100 1020 2 N 1.8
Ieri h: 06:20 nebbia Nebbia 12 12 100 1020 0.8 N 3.7
Ieri h: 05:50 nebbia Nebbia 12 12 100 1020 0.6 N 3.7
Ieri h: 04:50 nebbia Nebbia 12 12 100 1020 0.4 N 3.7
Ieri h: 04:20 nebbia Nebbia 12 12 100 1020 0.4 N 3.7
Ieri h: 02:50 nebbia Nebbia 12 12 100 1020 0.4 E/NE 9.3
Ieri h: 02:20 nebbia Nebbia 12 12 100 1020 0.4 E/NE 9.3
Ieri h: 01:50 nebbia Nebbia 12 12 100 1020 0.4 E/NE 9.3